Terminal Aerodrome Forecast
Issued by NWS Charleston, WV

Current Version | Previous Version | Graphics & Text | Print | Product List | Glossary On
Versions: 1 2 3 4 5 6 7 8 9 10 11 12 13 14 15 16 17 18 19 20 21 22 23
000
FTUS41 KRLX 272300
TAFBKW
TAF
KBKW 272335Z 2800/2824 18005KT P6SM SCT250
     FM281400 22010G18KT P6SM FEW030
     FM282300 21009G15KT P6SM SCT040=

USA.gov is the U.S. government's official web portal to all federal, state and local government web resources and services.